SCP
0 0 0 0 0 0 0 0 0 0 0 0 0 0 0 0 0 0 0 0 0 0 0 0 0 0 0 0 0 0 0 0 0 0 0 0 0 0 0 0 0 0 0 0
0 0 0 0 0 0 0 0 0 0 0 0 0 0 0 0 0 0 0 0 0 0 0 0 0 0 0 0 0 0 0 0 0 0 0 0 0 0 0 0 0 0 0 0
0 0 0 0 0 0 0 0 0 0 0 0 0 0 0 0 0 0 0 0 0 0 0 0 0 0 0 0 0 0 0 0 0 0 0 0 0 0 0 0 0 0 0 0
0 0 0 0 0 0 0 0 0 0 0 0 0 0 0 0 0 0 0 0 0 0 0 0 0 0 0 0 0 0 0 0 0 0 0 0 0 0 0 0 0 0 0 0
0 0 0 0 0 0 0 0 0 0 0 0 0 0 0 0 0 0 0 0 0 0 0 0 0 0 0 0 0 0 0 0 0 0 0 0 0 0 0 0 0 0 0 0
0 0 0 0 0 0 0 0 0 0 0 0 0 0 0 0 0 0 0 0 0 0 0 0 0 0 0 0 0 0 0 0 0 0 0 0 0 0 0 0 0 0 0 0
0 0 0 0 0 0 0 0 0 0 0 0 0 0 0 0 0 0 0 0 0 0 0 0 0 0 0 0 0 0 0 0 0 0 0 0 0 0 0 0 0 0 0 0
0 0 0 0 0 0 0 0 0 0 0 0 0 0 0 0 0 0 0 0 0 0 0 0 0 0 0 0 0 0 0 0 0 0 0 0 0 0 0 0 0 0 0 0
0 0 0 0 0 0 0 0 0 0 0 0 0 0 0 0 0 0 0 0 0 0 0 0 0 0 0 0 0 0 0 0 0 0 0 0 0 0 0 0 0 0 0 0
0 0 0 0 0 0 0 0 0 0 0 0 0 0 0 0 0 0 0 0 0 0 0 0 0 0 0 0 0 0 0 0 0 0 0 0 0 0 0 0 0 0 0 0
0 0 0 0 0 0 0 0 0 0 0 0 0 0 0 0 0 0 0 0 0 0 0 0 0 0 0 0 0 0 0 0 0 0 0 0 0 0 0 0 0 0 0 0
0 0 0 0 0 0 0 0 0 0 0 0 0 0 0 0 0 0 0 0 0 0 0 0 0 0 0 0 0 0 0 0 0 0 0 0 0 0 0 0 0 0 0 0
0 0 0 0 0 0 0 0 0 0 0 0 0 0 0 0 0 0 0 0 0 0 0 0 0 0 0 0 0 0 0 0 0 0 0 0 0 0 0 0 0 0 0 0
0 0 0 0 0 0 0 0 0 0 0 0 0 0 0 0 0 0 0 0 0 0 0 0 0 0 0 0 0 0 0 0 0 0 0 0 0 0 0 0 0 0 0 0
0 0 0 0 0 0 0 0 0 0 0 0 0 0 0 0 0 0 0 0 0 0 0 0 0 0 0 0 0 0 0 0 0 0 0 0 0 0 0 0 0 0 0 0
0 0 0 0 0 0 0 0 0 0 0 0 0 0 0 0 -0 0 -0 0 0 0 0 0 0 0 0 0 0 0 0 0 0 0 0 0 0 0 0 0 0 0 0 0
0 0 0 0 0 0 0 0 0 0 0 0 0 0 0 0 -0 0 0 0 0 0 0 0 0 0 0 0 0 0 0 0 0 0 0 0 0 0 0 0 0 0 0 0
0 0 0 0 0 0 0 0 0 0 0 0 0 0 0 0 0 0 0 0 0 0 0 0 0 0 0 0 0 0 0 0 0 0 0 0 0 0 0 0 0 0 0 0
0 0 0 0 0 0 0 0 0 0 0 0 0 0 0 0 0 0 0 0 0 0 0 0 0 0 0 0 0 0 0 0 0 0 0 0 0 0 0 0 0 0 0 0
0 0 0 0 0 0 0 0 0 0 0 0 0 0 0 0 0 0 0 0 0 0 0 0 0 0 0 0 0 0 0 0 0 0 0 0 0 0 0 0 0 0 0 0
0 0 0 0 0 0 0 0 0 0 0 0 0 0 0 0 0 0 0 0 0 0 0 0 0 0 0 0 0 0 0 0 0 0 0 0 0 0 0 0 0 0 0 0
0 0 0 0 0 0 0 0 0 0 0 0 0 0 0 0 0 0 0 0 0 0 0 0 0 0 0 0 0 0 0 0 0 0 0 0 0 0 0 0 0 0 0 0
0 0 0 0 0 0 0 0 0 0 0 0 0 0 0 0 0 0 0 0 0 0 0 0 0 0 0 0 0 0 0 0 0 0 0 0 0 0 0 0 0 0 0 0
0 0 0 0 0 0 0 0 0 0 0 0 0 0 0 0 0 0 0 0 0 0 0 0 0 0 0 0 0 0 0 0 0 0 0 0 0 0 0 0 0 0 0 0
0 0 0 0 0 0 0 0 0 0 0 0 0 0 0 0 0 0 0 0 0 0 0 0 0 0 0 0 0 0 0 0 0 0 0 0 0 0 0 0 0 0 0 0
0 0 0 0 0 0 0 0 0 0 0 0 0 0 0 0 0 0 0 0 0 0 0 0 0 0 0 0 0 0 0 0 0 0 0 0 0 0 0 0 0 0 0 0
0 0 0 0 0 0 0 0 0 0 0 0 0 0 0 0 0 0 0 0 0 0 0 0 0 0 0 0 0 0 0 0 0 0 0 0 0 0 0 0 0 0 0 0
Wind_Speed
12 10 7 9 10 11 14 14 13 15 15 15 11 9 7 5 5 4 4 4 4 4 4 3 3 3 3 3 2 2 3 3 3 3 3 3 3 3 3 3 4 4 4 4
8 7 8 12 14 14 16 16 18 19 20 13 9 7 6 6 5 6 5 5 4 4 4 4 3 3 3 3 3 3 3 3 3 3 3 3 3 3 3 3 4 4 4 5
8 5 7 13 13 15 13 12 12 16 16 9 8 8 8 6 5 6 6 5 5 5 4 4 4 4 4 3 3 3 3 3 3 3 3 3 3 3 4 4 4 4 4 5
6 4 12 6 2 8 11 12 13 12 10 8 8 8 6 5 6 6 5 5 5 5 5 4 3 3 3 3 3 3 3 3 3 3 3 3 3 4 4 4 4 4 5 5
4 8 12 6 4 5 8 10 8 11 11 8 6 6 5 3 4 5 5 5 5 4 4 3 2 2 2 2 2 3 3 3 3 3 3 3 4 4 4 4 4 4 5 5
6 8 10 4 2 2 3 7 4 6 8 5 3 5 3 1 3 4 4 3 3 2 2 2 2 2 2 2 2 3 4 3 3 3 4 4 4 4 4 4 4 4 5 5
11 11 11 1 3 5 6 4 0 4 5 4 6 5 3 3 4 3 3 2 2 1 1 1 1 1 2 2 3 4 4 3 3 3 4 4 4 4 4 4 4 4 5 5
8 10 10 4 6 7 3 2 1 2 3 5 6 3 3 3 3 3 2 2 1 1 1 1 1 2 2 3 3 3 3 3 3 3 3 3 4 4 4 4 4 5 5 5
8 7 1 6 5 2 1 2 3 3 4 4 4 4 3 3 3 2 2 2 1 1 2 2 2 2 3 3 3 3 3 3 3 3 3 3 3 4 4 4 4 4 4 4
6 8 5 5 4 3 3 4 4 4 4 4 4 4 4 3 2 2 2 2 1 1 2 2 2 2 3 3 3 3 3 3 3 3 3 3 3 3 3 4 4 4 4 4
7 7 5 6 6 6 4 4 4 3 3 3 4 4 3 3 3 2 2 2 1 2 2 3 3 3 3 3 2 3 3 3 3 3 3 3 3 3 4 4 5 5 5 5
7 4 5 4 1 2 3 4 3 2 3 2 3 3 3 3 2 2 2 2 2 2 3 3 3 4 3 3 3 3 3 3 3 3 3 3 3 3 5 6 7 9 9 8
5 2 3 2 1 1 2 2 2 2 2 2 2 2 2 2 2 2 2 2 3 3 3 3 4 4 4 3 3 3 4 4 3 3 3 3 3 4 4 4 6 8 9 9
3 2 3 2 2 1 1 1 1 1 1 1 1 1 1 2 2 2 3 3 3 3 3 3 4 4 4 3 3 4 4 4 4 4 3 4 4 4 4 5 5 4 6 8
3 3 3 1 1 0 0 0 0 1 1 1 1 1 2 2 3 3 3 3 3 3 3 4 4 5 4 3 4 4 4 3 3 4 4 4 4 4 4 5 5 5 4 5
2 1 1 2 2 2 1 2 2 2 2 2 2 2 3 3 3 3 3 2 3 4 4 4 5 5 4 3 4 4 4 5 5 4 4 4 4 4 4 4 4 4 4 4
2 3 3 3 4 4 3 3 3 3 3 3 3 3 3 2 3 3 3 3 3 4 5 5 5 4 4 4 4 4 3 4 6 4 4 4 4 4 4 4 4 4 4 5
4 3 3 4 4 4 4 3 3 3 3 3 3 3 3 3 3 4 4 4 4 4 5 5 5 4 4 4 4 3 3 3 3 4 4 4 4 4 4 4 4 5 4 5
2 2 2 3 3 3 3 3 3 3 3 3 3 3 4 4 4 4 3 3 4 5 5 4 6 5 4 5 5 3 4 4 4 4 3 5 4 4 4 4 4 5 4 4
2 2 2 2 2 2 3 3 2 3 3 2 3 3 4 4 4 4 3 4 5 4 4 5 5 4 5 5 5 4 4 4 4 4 3 3 4 4 4 4 4 4 4 4
2 2 2 2 2 3 3 3 3 3 3 3 3 4 5 4 4 3 4 5 5 4 5 6 4 4 4 5 5 4 3 4 4 4 4 4 4 4 4 4 4 4 4 4
2 2 3 2 2 3 3 3 3 3 3 3 4 4 4 4 4 4 5 5 5 6 5 4 4 5 6 6 3 3 4 4 4 4 4 4 4 4 4 4 4 4 4 4
2 2 3 3 3 3 3 3 3 3 4 4 4 4 5 4 4 4 4 4 4 6 5 4 6 8 8 4 3 3 4 4 4 4 4 4 4 4 5 5 5 4 4 4
2 2 2 2 2 2 3 3 3 3 4 5 5 5 5 4 4 4 4 6 7 7 5 6 8 8 7 3 3 3 4 4 4 4 4 4 4 4 4 5 5 5 5 5
2 2 2 2 3 3 4 3 3 4 4 4 4 5 4 4 4 4 4 4 6 7 5 6 8 8 5 3 4 4 4 4 4 4 4 4 4 4 5 5 5 5 5 5
2 2 3 3 3 3 3 3 3 3 3 4 4 3 3 3 4 4 4 4 5 7 5 4 4 5 4 4 4 5 5 5 6 5 5 5 5 5 5 5 6 6 6 6
2 2 2 3 3 3 3 3 3 4 4 4 4 4 3 3 3 4 4 4 4 4 4 4 4 4 4 4 4 5 5 5 5 5 5 5 5 5 5 6 6 6 6 6
Wind_Direction
261 267 254 247 241 225 222 235 248 260 264 270 270 272 273 272 266 258 255 259 263 266 271 278 287 293 293 290 284 260 245 244 250 259 260 260 261 260 260 256 250 251 253 253
263 256 258 258 250 238 236 242 249 262 270 272 279 277 270 265 257 256 257 262 268 271 273 273 281 292 297 296 286 262 246 250 256 257 256 256 257 259 256 258 256 251 250 252
261 272 278 257 236 223 225 226 232 247 259 271 274 270 270 267 253 254 261 266 267 267 268 275 280 287 288 290 291 268 253 254 253 251 251 254 258 257 254 254 256 250 249 252
270 276 251 255 176 213 227 239 232 244 264 274 273 285 285 268 259 261 268 270 272 274 275 276 281 289 293 287 276 263 257 257 256 252 253 254 253 255 259 258 257 257 252 253
238 254 266 262 206 198 219 251 232 237 258 276 302 298 263 244 262 268 276 279 277 273 269 266 268 282 285 282 276 263 260 263 265 258 254 254 250 254 259 260 260 263 262 256
225 244 256 263 138 173 194 252 218 222 251 267 278 272 287 15 302 292 300 301 294 285 272 261 272 273 265 279 281 275 273 273 274 267 258 256 258 262 262 260 262 267 269 263
231 244 260 277 138 166 210 267 87 217 238 229 231 261 322 327 315 311 310 306 299 276 265 275 284 266 264 274 278 287 289 283 277 273 267 263 263 262 261 263 267 266 271 269
213 230 248 135 152 200 250 4 307 271 253 241 248 272 292 298 303 308 308 305 297 280 287 297 278 254 265 276 290 297 292 287 283 280 277 269 264 265 262 259 261 264 268 273
209 228 353 161 195 236 310 265 278 281 281 264 256 260 272 283 285 288 285 281 279 270 284 295 281 261 265 285 300 297 291 290 290 289 280 272 263 260 259 256 257 263 266 273
249 256 251 227 243 260 256 262 279 284 279 257 253 256 259 268 275 278 273 269 262 258 270 287 292 283 280 295 294 287 287 291 290 284 282 276 269 261 258 257 258 262 265 271
250 273 291 255 243 250 256 263 272 281 274 253 244 249 253 262 268 273 274 271 256 254 266 282 291 291 299 300 292 282 284 286 286 282 281 280 275 273 270 265 265 267 268 270
241 240 237 263 299 279 252 256 252 257 280 281 253 246 253 262 267 268 268 266 261 264 272 282 287 289 298 298 287 278 279 282 281 284 284 279 280 283 277 274 282 280 280 281
253 295 272 289 311 301 273 274 268 251 254 268 276 259 253 264 274 275 271 265 263 267 272 278 282 289 297 297 285 273 274 280 281 280 279 281 281 282 289 289 283 285 287 287
261 268 261 253 266 304 304 310 312 303 290 276 273 277 270 274 281 273 275 279 278 276 274 276 279 284 294 294 283 276 275 276 278 278 279 280 281 282 283 288 294 296 294 293
263 255 250 304 7 346 309 208 213 272 299 310 300 281 272 272 275 280 288 289 282 276 277 279 278 285 298 290 279 276 275 271 275 277 276 277 280 281 282 284 286 292 298 301
274 276 237 239 246 250 246 232 241 261 272 278 284 282 279 276 280 285 287 277 270 276 282 282 281 289 295 286 279 274 270 277 281 277 273 275 277 277 280 283 285 287 292 301
193 224 228 244 247 248 246 246 248 256 264 268 273 281 282 280 283 286 288 284 277 278 280 279 283 290 287 279 276 274 274 276 281 279 273 271 273 274 276 279 282 285 289 295
231 238 227 231 235 240 251 252 250 253 258 266 273 270 259 257 266 278 288 293 288 285 283 284 287 288 281 280 276 275 273 273 272 274 274 270 271 272 275 277 279 280 284 291
228 235 237 237 239 233 240 248 252 257 264 262 259 257 257 260 266 274 282 280 277 280 287 289 290 289 282 279 280 269 271 273 275 276 277 280 283 280 278 276 278 280 284 287
238 239 239 249 248 239 246 257 260 263 261 248 250 259 265 268 269 271 270 265 265 276 289 290 286 280 277 276 280 272 268 269 272 276 278 277 279 281 284 284 284 284 284 284
248 246 244 248 259 261 256 256 252 258 263 248 241 249 260 271 270 265 265 273 281 279 277 280 280 277 273 272 272 264 262 266 268 270 273 276 278 279 281 284 285 284 284 284
239 240 248 250 256 271 275 262 252 255 260 257 254 257 263 269 268 262 255 263 282 289 286 277 277 277 277 276 261 257 259 262 265 268 269 271 273 277 281 285 284 285 285 286
244 245 251 253 256 273 282 268 255 249 249 251 253 255 258 264 265 265 274 270 274 282 283 274 280 284 284 278 263 260 263 265 267 266 267 269 270 273 276 278 279 280 282 285
246 247 251 257 249 255 268 272 265 258 256 259 256 254 257 264 265 258 265 280 288 291 286 284 287 291 295 284 275 270 268 268 267 268 269 269 269 269 270 271 274 276 277 280
240 243 240 238 245 253 262 273 273 267 264 266 271 268 259 256 262 274 276 277 282 290 289 288 291 297 298 286 278 273 271 270 269 268 265 267 268 268 268 269 269 272 274 273
241 247 250 249 252 258 260 258 263 267 268 272 278 275 271 266 266 270 273 276 277 283 286 284 286 289 284 279 275 274 272 277 280 277 273 271 271 270 269 269 270 269 271 271
251 253 253 260 259 253 253 253 258 264 264 266 275 277 274 273 272 274 277 278 279 280 281 280 277 273 273 272 272 271 270 269 268 267 268 267 268 268 270 269 269 269 269 268